• In Germany
  • List of Countries
  • For 7 days
  • Water Temperature
  • Satellite Maps
  • Weather Map
  • Weather Widgets
  • user-avatar
    Login

    Hourly Weather Stara Zagora

    Today, 20 August, Sunday

    Time Temperature Precipitation Wind Pressure Humidity
    00:00 +24°C° 0 mm 1 mps 742 mmHg 43%
    01:00 +23°C° 0 mm 1 mps 742 mmHg 44%
    02:00 +23°C° 0 mm 1 mps 742 mmHg 48%
    03:00 +22°C° 0 mm 1 mps 742 mmHg 49%
    04:00 +22°C° 0 mm 1 mps 742 mmHg 49%
    05:00 +22°C° 0 mm 1 mps 742 mmHg 50%
    06:00 +24°C° 0 mm 1 mps 742 mmHg 45%
    07:00 +25°C° 0 mm 1 mps 742 mmHg 41%
    08:00 +28°C° 0 mm 1 mps 742 mmHg 36%
    09:00 +29°C° 0 mm 2 mps 742 mmHg 31%
    10:00 +31°C° 0 mm 2 mps 741 mmHg 27%
    11:00 +34°C° 0 mm 2 mps 741 mmHg 23%
    12:00 +34°C° 0 mm 2 mps 741 mmHg 22%
    13:00 +35°C° 0 mm 2 mps 740 mmHg 21%
    14:00 +36°C° 0 mm 2 mps 740 mmHg 19%
    15:00 +36°C° 0 mm 2 mps 740 mmHg 20%
    16:00 +36°C° 0 mm 3 mps 739 mmHg 20%
    17:00 +36°C° 0 mm 3 mps 739 mmHg 21%
    18:00 +32°C° 0 mm 2 mps 739 mmHg 26%
    19:00 +30°C° 0 mm 2 mps 739 mmHg 31%
    20:00 +27°C° 0 mm 2 mps 739 mmHg 36%
    21:00 +26°C° 0 mm 2 mps 739 mmHg 38%
    22:00 +26°C° 0 mm 2 mps 739 mmHg 41%
    23:00 +25°C° 0 mm 2 mps 739 mmHg 44%

    Tomorrow, 21 August, Monday

    Time Temperature Precipitation Wind Pressure Humidity
    00:00 +24°C° 0 mm 1 mps 739 mmHg 46%
    01:00 +24°C° 0 mm 1 mps 739 mmHg 48%
    02:00 +23°C° 0 mm 1 mps 739 mmHg 51%
    03:00 +23°C° 0 mm 1 mps 739 mmHg 54%
    04:00 +21°C° 0 mm 2 mps 739 mmHg 56%
    05:00 +21°C° 0 mm 2 mps 738 mmHg 59%
    06:00 +22°C° 0 mm 3 mps 739 mmHg 57%
    07:00 +24°C° 0 mm 3 mps 739 mmHg 54%
    08:00 +25°C° 0 mm 3 mps 739 mmHg 52%
    09:00 +27°C° 0 mm 4 mps 739 mmHg 47%
    10:00 +29°C° 0 mm 4 mps 739 mmHg 43%
    11:00 +30°C° 0 mm 4 mps 739 mmHg 38%
    12:00 +32°C° 0 mm 4 mps 739 mmHg 37%
    13:00 +32°C° 0 mm 5 mps 738 mmHg 36%
    14:00 +33°C° 0 mm 5 mps 738 mmHg 35%
    15:00 +32°C° 0.1 mm 5 mps 738 mmHg 38%
    16:00 +30°C° 0.1 mm 5 mps 738 mmHg 41%
    17:00 +29°C° 0.1 mm 5 mps 738 mmHg 44%
    18:00 +28°C° 0.1 mm 4 mps 738 mmHg 49%
    19:00 +26°C° 0.1 mm 4 mps 738 mmHg 54%
    20:00 +23°C° 0.1 mm 4 mps 738 mmHg 59%
    21:00 +23°C° 0.1 mm 4 mps 739 mmHg 59%
    22:00 +22°C° 0.1 mm 4 mps 739 mmHg 60%
    23:00 +21°C° 0.1 mm 3 mps 739 mmHg 61%

    Day after tomorrow, 22 August, Tuesday

    Time Temperature Precipitation Wind Pressure Humidity
    00:00 +21°C° 0 mm 3 mps 739 mmHg 60%
    01:00 +20°C° 0 mm 3 mps 740 mmHg 60%
    02:00 +20°C° 0 mm 3 mps 740 mmHg 59%
    03:00 +19°C° 0 mm 3 mps 740 mmHg 59%
    04:00 +19°C° 0 mm 2 mps 740 mmHg 60%
    05:00 +18°C° 0 mm 2 mps 740 mmHg 60%
    06:00 +19°C° 0 mm 2 mps 740 mmHg 56%
    07:00 +20°C° 0 mm 3 mps 741 mmHg 52%
    08:00 +21°C° 0 mm 3 mps 741 mmHg 48%
    09:00 +22°C° 0 mm 3 mps 741 mmHg 46%
    10:00 +24°C° 0 mm 3 mps 742 mmHg 44%
    11:00 +23°C° 0 mm 4 mps 742 mmHg 43%
    12:00 +25°C° 0 mm 3 mps 742 mmHg 40%
    13:00 +26°C° 0 mm 3 mps 741 mmHg 38%
    14:00 +27°C° 0 mm 3 mps 741 mmHg 36%
    15:00 +27°C° 0 mm 3 mps 741 mmHg 34%
    16:00 +27°C° 0 mm 3 mps 741 mmHg 33%
    17:00 +28°C° 0 mm 2 mps 741 mmHg 31%
    18:00 +26°C° 0 mm 2 mps 741 mmHg 35%
    19:00 +24°C° 0 mm 2 mps 741 mmHg 40%
    20:00 +22°C° 0 mm 1 mps 741 mmHg 44%
    21:00 +21°C° 0 mm 1 mps 741 mmHg 46%
    22:00 +20°C° 0 mm 1 mps 742 mmHg 47%
    23:00 +19°C° 0 mm 1 mps 742 mmHg 49%

    23 August, Wednesday

    Time Temperature Precipitation Wind Pressure Humidity
    00:00 +19°C° 0 mm 1 mps 742 mmHg 50%
    01:00 +19°C° 0 mm 1 mps 742 mmHg 51%
    02:00 +18°C° 0 mm 1 mps 742 mmHg 52%
    03:00 +18°C° 0 mm 1 mps 742 mmHg 53%
    04:00 +18°C° 0 mm 1 mps 742 mmHg 54%
    05:00 +16°C° 0 mm 1 mps 742 mmHg 55%
    06:00 +19°C° 0 mm 1 mps 742 mmHg 50%
    07:00 +20°C° 0 mm 2 mps 743 mmHg 44%
    08:00 +23°C° 0 mm 2 mps 743 mmHg 39%
    09:00 +25°C° 0 mm 2 mps 743 mmHg 35%
    10:00 +26°C° 0 mm 3 mps 743 mmHg 30%
    11:00 +28°C° 0 mm 3 mps 743 mmHg 26%
    12:00 +29°C° 0 mm 3 mps 743 mmHg 24%
    13:00 +30°C° 0 mm 4 mps 743 mmHg 22%
    14:00 +32°C° 0 mm 4 mps 743 mmHg 19%
    15:00 +32°C° 0 mm 4 mps 742 mmHg 20%
    16:00 +32°C° 0 mm 4 mps 742 mmHg 20%
    17:00 +32°C° 0 mm 4 mps 742 mmHg 20%
    18:00 +28°C° 0 mm 3 mps 742 mmHg 25%
    19:00 +26°C° 0 mm 3 mps 743 mmHg 30%
    20:00 +23°C° 0 mm 2 mps 743 mmHg 35%
    21:00 +21°C° 0 mm 2 mps 743 mmHg 36%
    22:00 +20°C° 0 mm 2 mps 744 mmHg 38%
    23:00 +20°C° 0 mm 2 mps 744 mmHg 39%

    24 August, Thursday

    Time Temperature Precipitation Wind Pressure Humidity
    00:00 +19°C° 0 mm 2 mps 744 mmHg 41%
    01:00 +19°C° 0 mm 2 mps 744 mmHg 42%
    02:00 +19°C° 0 mm 1 mps 744 mmHg 44%
    03:00 +19°C° 0 mm 1 mps 744 mmHg 45%
    04:00 +18°C° 0 mm 1 mps 744 mmHg 47%
    05:00 +18°C° 0 mm 1 mps 744 mmHg 48%
    06:00 +20°C° 0 mm 1 mps 745 mmHg 44%
    07:00 +22°C° 0 mm 1 mps 745 mmHg 39%
    08:00 +24°C° 0 mm 1 mps 746 mmHg 35%
    09:00 +26°C° 0 mm 1 mps 746 mmHg 31%
    10:00 +28°C° 0 mm 1 mps 746 mmHg 28%
    11:00 +30°C° 0 mm 1 mps 746 mmHg 24%
    12:00 +30°C° 0 mm 1 mps 746 mmHg 22%
    13:00 +31°C° 0 mm 1 mps 745 mmHg 20%
    14:00 +32°C° 0 mm 1 mps 745 mmHg 18%
    15:00 +32°C° 0 mm 1 mps 745 mmHg 18%
    16:00 +32°C° 0 mm 2 mps 745 mmHg 18%
    17:00 +31°C° 0 mm 2 mps 745 mmHg 18%
    18:00 +29°C° 0 mm 2 mps 745 mmHg 23%
    19:00 +26°C° 0 mm 2 mps 745 mmHg 27%
    20:00 +24°C° 0 mm 2 mps 745 mmHg 31%
    21:00 +23°C° 0 mm 2 mps 745 mmHg 36%
    22:00 +21°C° 0 mm 2 mps 746 mmHg 40%
    23:00 +21°C° 0 mm 1 mps 746 mmHg 44%

    25 August, Friday

    Time Temperature Precipitation Wind Pressure Humidity
    00:00 +20°C° 0 mm 1 mps 746 mmHg 48%
    01:00 +20°C° 0 mm 1 mps 746 mmHg 52%
    02:00 +19°C° 0 mm 1 mps 746 mmHg 57%
    03:00 +19°C° 0 mm 1 mps 746 mmHg 60%
    04:00 +19°C° 0 mm 1 mps 746 mmHg 63%
    05:00 +18°C° 0 mm 1 mps 746 mmHg 66%
    06:00 +20°C° 0 mm 1 mps 746 mmHg 60%
    07:00 +22°C° 0 mm 1 mps 747 mmHg 54%
    08:00 +24°C° 0 mm 1 mps 747 mmHg 48%
    09:00 +26°C° 0 mm 2 mps 747 mmHg 42%
    10:00 +27°C° 0 mm 2 mps 747 mmHg 36%
    11:00 +29°C° 0 mm 3 mps 747 mmHg 30%
    12:00 +30°C° 0 mm 3 mps 747 mmHg 28%
    13:00 +31°C° 0 mm 3 mps 746 mmHg 25%
    14:00 +33°C° 0 mm 4 mps 746 mmHg 23%
    15:00 +33°C° 0 mm 4 mps 746 mmHg 24%
    16:00 +32°C° 0 mm 4 mps 746 mmHg 25%
    17:00 +32°C° 0 mm 5 mps 745 mmHg 25%
    18:00 +28°C° 0 mm 4 mps 746 mmHg 32%
    19:00 +26°C° 0 mm 4 mps 746 mmHg 39%
    20:00 +22°C° 0 mm 3 mps 746 mmHg 46%
    21:00 +21°C° 0 mm 3 mps 746 mmHg 52%
    22:00 +20°C° 0 mm 2 mps 746 mmHg 59%
    23:00 +19°C° 0 mm 2 mps 746 mmHg 66%
    Show more